Regional Weather Roundup
Issued by NWS

Home | Current Version | Previous Version | Graphics & Text | Print | Product List | Glossary Off
Versions: 1 2 3 4 5 6 7 8 9 10 11 12 13 14 15 16 17 18 19 20 21 22 23 24 25 26 27 28 29 30 31 32 33 34 35 36 37 38 39 40 41 42 43 44 45 46 47 48 49 50

000
ASUS43 KMKX 011000
RWRWI

WISCONSIN REGIONAL WEATHER ROUNDUP
NATIONAL WEATHER SERVICE MILWAUKEE/SULLIVAN WI
500 AM CDT SUN MAY 01 2016

NOTE: "FAIR" INDICATES FEW OR NO CLOUDS BELOW 12,000 FEET WITH NO
SIGNIFICANT WEATHER AND/OR OBSTRUCTIONS TO VISIBILITY.

WIZ001-002-006>008-014>016-023>028-011100-
NORTHWEST WISCONSIN

CITY           SKY/WX    TMP DP  RH WIND       PRES   REMARKS
SUPERIOR ARPT  CLOUDY    38  31  76 NE7       30.23S WCI  32
ASHLAND        CLOUDY    39  34  82 NE15      30.22R WCI  31
HAYWARD        PTCLDY    35  31  85 N8        30.17S WCI  29
SIREN          PTCLDY    38  32  78 NE7       30.19R WCI  33
CUMBERLAND     CLOUDY    37  32  81 NE9       30.14S WCI  31
RICE LAKE      CLOUDY    40  33  76 N8        30.16R WCI  34
CHETEK         CLOUDY    41  33  73 NE7       30.14R
LADYSMITH      CLOUDY    39  34  80 N7        30.15S WCI  34
EAU CLAIRE     NOT AVBL
MENOMONIE      CLOUDY    45  31  59 NE7       30.12R
NEW RICHMOND   CLOUDY    41  32  70 NE10      30.14R
OSCEOLA        MOCLDY    40  33  75 N7        30.18R
$$

WIZ003>005-009-010-017-018-011100-
NORTH CENTRAL WISCONSIN

CITY           SKY/WX    TMP DP  RH WIND       PRES   REMARKS
MANITOWISH WTR CLOUDY    36  36  99 NE7       30.14R WCI  30
ARBOR VITAE    CLOUDY    37  34  90 N5        30.13R WCI  33
WOODRUFF       CLOUDY    37  34  90 N5        30.13R WCI  33
RHINELANDER    CLOUDY    36  32  85 N5        30.12S WCI  32
EAGLE RIVER    CLOUDY    34  33  96 N6        30.12S WCI  29
LAND O LAKES   CLOUDY    36  34  94 N6        30.14R WCI  31
PHILLIPS       CLOUDY    36  33  89 NE8       30.12S WCI  30
TOMAHAWK       CLOUDY    37  32  84 CALM      30.12S
MEDFORD        CLOUDY    39  33  78 NE8       30.10R WCI  34
MERRILL        CLOUDY    39  34  81 N5        30.11R
$$

WIZ029-030-035-036-043>047-011100-
CENTRAL WISCONSIN

CITY           SKY/WX    TMP DP  RH WIND       PRES   REMARKS
WAUSAU         CLOUDY    45  32  60 N5        30.08R
MOSINEE        CLOUDY    43  32  65 N6        30.09S
MARSHFIELD     CLOUDY    44  31  60 NE8       30.07S
STEVENS POINT  DRIZZLE   41  32  70 N6        30.08R
WAUPACA        LGT RAIN  44  36  73 N3        30.08R
WAUTOMA        CLOUDY    42  35  76 NE8       30.07
WISC RAPIDS    CLOUDY    45  30  55 NE6       30.08S
CAMP DOUGLAS   NOT AVBL
$$

WIZ011>013-019>022-031-037>040-048>050-011100-
NORTHEAST WISCONSIN

CITY           SKY/WX    TMP DP  RH WIND       PRES   REMARKS
ANTIGO         MOCLDY    39  33  77 CALM      30.09R
SHAWANO        CLOUDY    46  34  63 NE6       30.09R
OCONTO         CLOUDY    42  35  74 N5        30.08R
STURGEON BAY   CLOUDY    43  32  65 NE6       30.10R
GREEN BAY      LGT RAIN  43  38  82 N9        30.07R
MANITOWOC      NOT AVBL
APPLETON       CLOUDY    41  32  70 N8        30.04S
CLINTONVILLE   CLOUDY    43  32  65 N5        30.08R
OSHKOSH        LGT RAIN  43  37  79 N14       30.04S
$$

WIZ032>034-041-042-053>061-011100-
SOUTHWEST WISCONSIN

CITY           SKY/WX    TMP DP  RH WIND       PRES   REMARKS
LA CROSSE      CLOUDY    46  37  71 NE7       30.06S
SPARTA         CLOUDY    44  37  73 E3        30.07S
VIROQUA        CLOUDY    42  38  84 NE14G21   30.03R
BOSCOBEL       CLOUDY    46  38  73 NE6       30.02R
PRAIRIE DU CHI CLOUDY    45  37  73 NE3       30.01R
PLATTEVILLE    CLOUDY    44  43  97 NE14G21   29.97S
$$

WIZ056-057-062-063-064-067-068-011100-
SOUTH CENTRAL WISCONSIN

CITY           SKY/WX    TMP DP  RH WIND       PRES   REMARKS
REEDSBURG      CLOUDY    43  37  80 NE7       30.03S
BARABOO/DELLS  CLOUDY    42  36  77 NE9       30.03R
LONE ROCK      NOT AVBL
MINERAL POINT  CLOUDY    43  43 100 NE13      29.97F
MADISON        CLOUDY    42  39  89 NE14      29.99F
MIDDLETON      CLOUDY    43  41  92 NE15      30.00S
WATERTOWN      CLOUDY    42  42 100 NE9       30.00R
MONROE         CLOUDY    43  43 100 NE14      29.96R FOG
JANESVILLE     CLOUDY    45  45 100 NE10G16   29.95F FOG
$$

WIZ051-052-058>065-066-070>072-011100-
SOUTHEAST WISCONSIN

CITY           SKY/WX    TMP DP  RH WIND       PRES   REMARKS
MILWAUKEE      LGT RAIN  42  40  92 NE16      29.98S FOG
WAUKESHA       DRIZZLE   41  39  93 NE8       30.00R
MILWAUKEE/TIMM CLOUDY    41  39  93 NE13G20   30.00R FOG
RACINE         CLOUDY    42  40  92 N13       29.99R FOG
BURLINGTON     CLOUDY    42  42  99 NE10      29.97R FOG
KENOSHA        LGT RAIN  43  41  93 NE13      29.96R FOG
FOND DU LAC    CLOUDY    44  38  79 NE14      30.03S
SHEBOYGAN      CLOUDY    41  38  89 N10       30.02S
WEST BEND      CLOUDY    41  39  93 NE7       30.00S
JUNEAU         CLOUDY    41  39  91 N10       30.02R
$$

LSZ147-162-011100-
LAKE SUPERIOR

STATION/POSITION TIME  TEMP    WIND        PRES    WAVE
                       AIR SEA DIR/SP/G            HT/PER
                 (UTC) (F)     (DEG/KT/KT) (MB)    (FT/S)
W MID LAKE BUOY  0850   38 37   30/ 14/ 16 1023.9R   2/ 3
DEVILS ISLAND    0900   39      30/ 13/ 15 1024.3S
PORT WING        0940   34     100/  2/  4 1023.7S
SAXON HARBOR     0940   39      40/ 11/ 13 1022.4R
$$

LMZ867-665-643>646-011100-
LAKE MICHIGAN

STATION/POSITION TIME  TEMP    WIND        PRES    WAVE
                       AIR SEA DIR/SP/G            HT/PER
                 (UTC) (F)     (DEG/KT/KT) (MB)    (FT/S)
CHAMBERS ISLAND  0900   41     360/ 12/ 14 1018.6R
N MID LAKE BUOY  0850   40 39   20/ 12/ 14 1018.3F   1/ 4
NORTHPORT PIER   0900   42      30/  8/ 11 1018.3F
ALGOMA LAKESHORE 0800           60/ 17/ 23   N/A
KEWAUNEE LAKESHO 0900   42      20/  8/ 14 1017.0R
SHEBOYGAN LAKESH 0900   42      10/ 18/ 20 1017.4R
PORT WASHINGTON  0900   44      20/ 13/ 19 1016.9
S MID LAKE BUOY  0850   42 40   40/ 14/ 16 1014.0R   2/ 4
KENOSHA   LAKESH 0900   42      20/ 16/ 20 1014.2S
$$

TC  - TEMPERATURE IN CELSIUS
VSB - VISIBILITY IN STATUTE MILES
WCI - WIND CHILL INDEX
HX  - HEAT INDEX




USA.gov is the U.S. government's official web portal to all federal, state and local government web resources and services.